Location: Niagara
(43.2500°N, 79.0670°W)
Time: 18:25:09
(UTC-05:00)

Envisat - Pass Details

Date: 12 October 2017
Orbit: 764 x 766 km, 98.2° (Epoch: 17 December)

Event Time Altitude Azimuth Distance (km) Brightness Sun altitude
Exits shadow 19:53:47 21° 80° (E) 1,654 4.1 -14.6°
Maximum altitude 19:54:43 23° 64° (ENE) 1,607 4.2 -14.8°
Drops below altitude 10° 19:58:36 10° 14° (NNE) 2,314 5.4 -15.5°
Sets 20:01:20 0° 360° (N) 3,245 6.3 -16.0°
